Regional Weather Roundup
Issued by NWS Goodland, KS

Home | Current Version | Previous Version | Text Only | Print | Product List | Glossary Off
Versions: 1 2 3 4 5 6 7 8 9 10 11 12 13 14 15 16 17 18 19 20 21 22 23 24 25 26 27 28 29 30 31 32 33 34 35 36 37 38 39 40 41 42 43 44 45 46 47 48 49 50

000
ASUS43 KGLD 291059
RWRGLD

GOODLAND FORECAST AREA HOURLY WEATHER ROUNDUP
NATIONAL WEATHER SERVICE GOODLAND KS
500 AM MDT SAT AUG 29 2015

...OFFICIAL OBSERVATIONS...

CITY           SKY/WX    TMP DP  RH WIND       PRES   REMARKS
GOODLAND KS    CLEAR     58  55  90 W6        30.17S
HILL CITY KS   CLEAR     57  56  96 W7        30.10R
IMPERIAL NEB   CLEAR     57  54  89 SW3       30.15S
MCCOOK NEB     CLEAR     54  54 100 W6        30.12R
AKRON CO       CLEAR     59  44  57 SW10      30.22S
BURLINGTON CO  CLEAR     54  50  86 W7        30.21S
LIMON CO       CLEAR     46  43  89 N5        30.29S
$$

...UNOFFICIAL OBSERVATIONS...

CITY           SKY/WX    TMP DP  RH WIND       PRES   REMARKS
GOVE KS          N/A     56  32  40 MISG        N/A
LENORA KS        N/A     59  32  36 MISG        N/A
SHARON SPRINGS   N/A     56  54  92 W5          N/A
YUMA CO          N/A     54  49  83 CALM        N/A
$$


USA.gov is the U.S. government's official web portal to all federal, state and local government web resources and services.